Location: Klickitat County Star Party
(45.8642°N, 120.6771°W)
Time: 13:45:45
(UTC-07:00)

SO-50 - Pass Details

Date: 03 June 2019
Orbit: 586 x 700 km, 64.6° (Epoch: 18 June)

Event Time Altitude Azimuth Distance (km) Brightness Sun altitude
Rises 23:20:24 0° 327° (NNW) 3,089 ? -18.0°
Reaches altitude 10° 23:22:59 10° 337° (NNW) 2,161 ? -18.2°
Maximum altitude 23:27:26 33° 42° (NE) 1,164 ? -18.5°
Enters shadow 23:30:40 16° 98° (E) 1,753 ? -18.7°
